FDX11 EDDF-EIDW

Flight info

Callsign FDX11
Flight time N/A
Altitude 34000
Route OBOKA3W/25C OBOKA Z28 DIBIR DCT BUDIP DCT RAVLO Y70 OTBED L60 PENIL UL28 LELDO M145 BAGSO BAGSO4L
Aircraft DC10/H-SDE1E2E3FGHIJ2J3J4J5M1RWXY/LB1D1

Departure

Time N/A
Airport Frankfurt Main Airport (EDDF)

Arrival

Time 2026-05-06 12:05
Airport Dublin Airport (EIDW)
Time Latitude Longitude Altitude Speed Heading
2026-05-06 10:50 51.42925 5.78472 40840 ft 521 kts 312°
2026-05-06 10:51 51.48032 5.70224 40845 ft 520 kts 312°
2026-05-06 10:51 51.53078 5.61865 40845 ft 519 kts 311°
2026-05-06 10:52 51.58008 5.53493 40845 ft 519 kts 311°
2026-05-06 10:52 51.62963 5.45037 40845 ft 519 kts 311°
2026-05-06 10:53 51.67908 5.36587 40845 ft 518 kts 311°
2026-05-06 10:53 51.72847 5.28119 40845 ft 518 kts 311°
2026-05-06 10:54 51.77774 5.19629 40847 ft 518 kts 311°
2026-05-06 10:54 51.82693 5.11120 40861 ft 517 kts 311°
2026-05-06 10:55 51.87567 5.02663 40866 ft 517 kts 311°
2026-05-06 10:55 51.92478 4.94112 40871 ft 517 kts 311°
2026-05-06 10:56 51.97371 4.85561 40874 ft 517 kts 310°
2026-05-06 10:56 52.02090 4.77289 40875 ft 517 kts 310°
2026-05-06 10:57 52.07084 4.68493 40875 ft 517 kts 310°
2026-05-06 10:57 52.11955 4.59886 40875 ft 517 kts 310°
2026-05-06 10:58 52.16795 4.51313 40875 ft 517 kts 310°
2026-05-06 10:58 52.21661 4.42676 40875 ft 517 kts 310°
2026-05-06 10:59 52.26530 4.34016 40875 ft 517 kts 310°
2026-05-06 10:59 52.31397 4.25342 40878 ft 517 kts 310°
2026-05-06 11:00 52.36219 4.16720 40891 ft 517 kts 310°
2026-05-06 11:00 52.41073 4.07976 40903 ft 517 kts 310°
2026-05-06 11:01 52.45900 3.99260 40921 ft 517 kts 310°
2026-05-06 11:01 52.50703 3.90552 40931 ft 516 kts 310°
2026-05-06 11:02 52.55518 3.81781 40937 ft 516 kts 310°
2026-05-06 11:02 52.60326 3.72989 40938 ft 516 kts 310°
2026-05-06 11:03 52.65088 3.64252 40941 ft 515 kts 310°
2026-05-06 11:03 52.69872 3.55445 40944 ft 515 kts 310°
2026-05-06 11:04 52.74651 3.46614 40946 ft 515 kts 309°
2026-05-06 11:04 52.79381 3.37813 40948 ft 515 kts 309°
2026-05-06 11:05 52.84139 3.28964 40955 ft 514 kts 309°
2026-05-06 11:05 52.88882 3.20111 40962 ft 514 kts 309°
2026-05-06 11:05 52.91062 3.15453 40959 ft 509 kts 297°
2026-05-06 11:06 52.92501 3.10131 40967 ft 504 kts 286°
2026-05-06 11:06 52.94118 2.98931 40968 ft 502 kts 279°
2026-05-06 11:07 52.95405 2.87533 40964 ft 502 kts 279°
2026-05-06 11:07 52.96803 2.76166 40963 ft 503 kts 280°
2026-05-06 11:08 52.98260 2.64801 40966 ft 503 kts 280°
2026-05-06 11:08 52.99714 2.53428 40971 ft 503 kts 280°
2026-05-06 11:09 53.01161 2.42053 40978 ft 503 kts 280°
2026-05-06 11:09 53.02582 2.30765 40982 ft 503 kts 280°
2026-05-06 11:10 53.04002 2.19386 40984 ft 503 kts 280°
2026-05-06 11:10 53.05415 2.07996 40991 ft 502 kts 280°
2026-05-06 11:11 53.06816 1.96591 40993 ft 502 kts 280°
2026-05-06 11:11 53.08192 1.85282 40993 ft 502 kts 280°
2026-05-06 11:12 53.09566 1.73890 40993 ft 502 kts 280°
2026-05-06 11:12 53.10929 1.62495 40993 ft 502 kts 280°
2026-05-06 11:13 53.12281 1.51086 40993 ft 501 kts 279°
2026-05-06 11:13 53.13617 1.39739 40993 ft 501 kts 279°
2026-05-06 11:14 53.14945 1.28350 40993 ft 501 kts 279°
2026-05-06 11:14 53.16260 1.16954 40993 ft 501 kts 279°
2026-05-06 11:15 53.17564 1.05546 40996 ft 501 kts 279°
2026-05-06 11:15 53.18858 0.94124 41003 ft 501 kts 279°
2026-05-06 11:16 53.20147 0.82716 41010 ft 501 kts 279°
2026-05-06 11:16 53.21416 0.71336 41013 ft 501 kts 279°
2026-05-06 11:17 53.22682 0.59908 41016 ft 501 kts 279°
2026-05-06 11:17 53.23942 0.48465 41018 ft 501 kts 279°
2026-05-06 11:18 53.25196 0.37023 41022 ft 501 kts 279°
2026-05-06 11:18 53.26445 0.25562 41022 ft 501 kts 279°
2026-05-06 11:19 53.27667 0.14095 41022 ft 501 kts 279°
2026-05-06 11:19 53.28868 0.02685 41022 ft 501 kts 278°
2026-05-06 11:20 53.30070 -0.08788 41022 ft 501 kts 279°
2026-05-06 11:20 53.31260 -0.20287 41022 ft 501 kts 278°
2026-05-06 11:21 53.32434 -0.31779 41022 ft 501 kts 278°
2026-05-06 11:21 53.33592 -0.43212 41026 ft 501 kts 278°
2026-05-06 11:22 53.34742 -0.54704 41023 ft 501 kts 278°
2026-05-06 11:22 53.35882 -0.66218 41022 ft 501 kts 278°
2026-05-06 11:23 53.37015 -0.77740 41022 ft 501 kts 278°
2026-05-06 11:23 53.37948 -0.87329 41022 ft 501 kts 278°
2026-05-06 11:24 53.39059 -0.98885 41022 ft 501 kts 278°
2026-05-06 11:24 53.40151 -1.10344 41022 ft 501 kts 278°
2026-05-06 11:25 53.41239 -1.21874 41022 ft 501 kts 278°
2026-05-06 11:25 53.42315 -1.33437 41022 ft 501 kts 278°
2026-05-06 11:26 53.43380 -1.44989 41022 ft 501 kts 278°
2026-05-06 11:26 53.44436 -1.56562 41024 ft 501 kts 278°
2026-05-06 11:27 53.45482 -1.68136 41030 ft 501 kts 278°
2026-05-06 11:27 53.46521 -1.79710 41039 ft 501 kts 278°
2026-05-06 11:28 53.47537 -1.91228 41044 ft 501 kts 277°
2026-05-06 11:28 53.48546 -2.02811 41048 ft 501 kts 277°
2026-05-06 11:29 53.49545 -2.14403 41050 ft 501 kts 277°
2026-05-06 11:29 53.50538 -2.25992 41052 ft 501 kts 277°
2026-05-06 11:30 53.51509 -2.37512 41052 ft 501 kts 277°
2026-05-06 11:30 53.52474 -2.49115 41052 ft 501 kts 277°
2026-05-06 11:31 53.53420 -2.60608 40939 ft 486 kts 277°
2026-05-06 11:31 53.53877 -2.66172 40813 ft 475 kts 277°
2026-05-06 11:31 53.54321 -2.71617 40683 ft 465 kts 277°
2026-05-06 11:31 53.54750 -2.76955 40552 ft 456 kts 277°
2026-05-06 11:32 53.55168 -2.82197 40421 ft 447 kts 277°
2026-05-06 11:32 53.55572 -2.87279 40292 ft 439 kts 277°
2026-05-06 11:32 53.55972 -2.92326 40160 ft 430 kts 277°
2026-05-06 11:32 53.56361 -2.97254 40029 ft 422 kts 277°
2026-05-06 11:33 53.56742 -3.02120 39896 ft 414 kts 277°
2026-05-06 11:33 53.57114 -3.06906 39567 ft 413 kts 277°
2026-05-06 11:33 53.57483 -3.11699 39097 ft 413 kts 277°
2026-05-06 11:33 53.57853 -3.16508 38604 ft 414 kts 277°
2026-05-06 11:34 53.58221 -3.21329 38064 ft 416 kts 277°
2026-05-06 11:34 53.58583 -3.26110 37508 ft 419 kts 277°
2026-05-06 11:34 53.58953 -3.30992 36940 ft 422 kts 277°
2026-05-06 11:34 53.59325 -3.35906 36371 ft 426 kts 276°
2026-05-06 11:35 53.59705 -3.40890 35799 ft 429 kts 276°
2026-05-06 11:35 53.60089 -3.45891 35230 ft 433 kts 276°
2026-05-06 11:35 53.60470 -3.50950 34659 ft 436 kts 276°
2026-05-06 11:35 53.60843 -3.56030 34090 ft 440 kts 276°
2026-05-06 11:36 53.61214 -3.61155 33519 ft 442 kts 276°
2026-05-06 11:36 53.61654 -3.66290 32943 ft 445 kts 281°
2026-05-06 11:36 53.62571 -3.71284 32374 ft 448 kts 289°
2026-05-06 11:36 53.63738 -3.76168 31804 ft 450 kts 291°
2026-05-06 11:37 53.64973 -3.81036 31230 ft 452 kts 291°
2026-05-06 11:37 53.66203 -3.85908 30658 ft 453 kts 291°
2026-05-06 11:37 53.67399 -3.90736 30352 ft 441 kts 291°
2026-05-06 11:37 53.68559 -3.95504 29808 ft 437 kts 290°
2026-05-06 11:38 53.69535 -3.99562 29303 ft 434 kts 291°
2026-05-06 11:38 53.70659 -4.04276 28703 ft 431 kts 290°
2026-05-06 11:38 53.71631 -4.09030 28095 ft 427 kts 283°
2026-05-06 11:38 53.72021 -4.13983 27503 ft 424 kts 275°
2026-05-06 11:39 53.72195 -4.18924 26910 ft 421 kts 273°
2026-05-06 11:39 53.72334 -4.23861 26310 ft 419 kts 273°
2026-05-06 11:39 53.72481 -4.28772 25709 ft 417 kts 273°
2026-05-06 11:39 53.72633 -4.33606 25115 ft 415 kts 274°
2026-05-06 11:40 53.72798 -4.38468 24514 ft 414 kts 274°
2026-05-06 11:40 53.72968 -4.43313 23914 ft 412 kts 274°
2026-05-06 11:40 53.73138 -4.48142 23370 ft 409 kts 274°
2026-05-06 11:40 53.73306 -4.52919 22861 ft 406 kts 274°
2026-05-06 11:41 53.73473 -4.57653 22359 ft 403 kts 274°
2026-05-06 11:41 53.73635 -4.62360 21857 ft 399 kts 274°
2026-05-06 11:41 53.73794 -4.67031 21355 ft 396 kts 274°
2026-05-06 11:41 53.73948 -4.71560 20755 ft 376 kts 274°
2026-05-06 11:42 53.74092 -4.75856 20227 ft 356 kts 274°
2026-05-06 11:42 53.74228 -4.79920 19710 ft 336 kts 274°
2026-05-06 11:42 53.74353 -4.83712 19223 ft 318 kts 274°
2026-05-06 11:42 53.74475 -4.87343 18755 ft 300 kts 274°
2026-05-06 11:43 53.74589 -4.90766 18291 ft 285 kts 274°
2026-05-06 11:43 53.74695 -4.94039 17827 ft 273 kts 274°
2026-05-06 11:43 53.74797 -4.97192 17369 ft 266 kts 274°
2026-05-06 11:44 53.74998 -5.03381 16462 ft 262 kts 274°
2026-05-06 11:44 53.75093 -5.06458 16013 ft 262 kts 274°
2026-05-06 11:44 53.75187 -5.09529 15565 ft 262 kts 274°
2026-05-06 11:44 53.75253 -5.12601 15110 ft 261 kts 268°
2026-05-06 11:45 53.74877 -5.15576 14720 ft 265 kts 255°
2026-05-06 11:45 53.74314 -5.18541 14368 ft 266 kts 253°
2026-05-06 11:45 53.73744 -5.21465 13866 ft 256 kts 253°
2026-05-06 11:45 53.73185 -5.24292 13408 ft 252 kts 253°
2026-05-06 11:46 53.72626 -5.27084 12956 ft 251 kts 253°
2026-05-06 11:46 53.72064 -5.29875 12507 ft 251 kts 253°
2026-05-06 11:46 53.71509 -5.32629 12052 ft 243 kts 253°
2026-05-06 11:46 53.70976 -5.35270 11584 ft 231 kts 253°
2026-05-06 11:47 53.70477 -5.37738 11122 ft 220 kts 253°
2026-05-06 11:47 53.69994 -5.40128 10658 ft 212 kts 253°
2026-05-06 11:47 53.69523 -5.42455 10203 ft 206 kts 253°
2026-05-06 11:47 53.69078 -5.44653 10052 ft 193 kts 253°
2026-05-06 11:48 53.68649 -5.46764 10074 ft 191 kts 253°
2026-05-06 11:48 53.68218 -5.48932 9954 ft 197 kts 255°
2026-05-06 11:48 53.68171 -5.51253 9732 ft 199 kts 276°
2026-05-06 11:48 53.68223 -5.53602 9500 ft 201 kts 272°
2026-05-06 11:49 53.68265 -5.55961 9248 ft 200 kts 273°
2026-05-06 11:49 53.68310 -5.58298 8996 ft 199 kts 273°
2026-05-06 11:49 53.68356 -5.60630 8744 ft 198 kts 273°
2026-05-06 11:49 53.68338 -5.62950 8468 ft 199 kts 262°
2026-05-06 11:50 53.67639 -5.64951 8242 ft 201 kts 231°
2026-05-06 11:50 53.66816 -5.66841 8019 ft 203 kts 237°
2026-05-06 11:50 53.65968 -5.68747 7770 ft 202 kts 233°
2026-05-06 11:50 53.65096 -5.70600 7517 ft 201 kts 232°
2026-05-06 11:51 53.64016 -5.72050 7186 ft 204 kts 201°
2026-05-06 11:51 53.62625 -5.71809 6944 ft 209 kts 154°
2026-05-06 11:51 53.61562 -5.70136 6800 ft 212 kts 133°
2026-05-06 11:51 53.60469 -5.68509 6550 ft 211 kts 138°
2026-05-06 11:52 53.59480 -5.66711 6303 ft 208 kts 131°
2026-05-06 11:52 53.58551 -5.64865 6048 ft 205 kts 130°
2026-05-06 11:52 53.57596 -5.63097 5764 ft 203 kts 141°
2026-05-06 11:52 53.56336 -5.62098 5555 ft 200 kts 158°
2026-05-06 11:53 53.55107 -5.60985 5313 ft 201 kts 152°
2026-05-06 11:53 53.53877 -5.59841 5059 ft 200 kts 152°
2026-05-06 11:53 53.52687 -5.58711 4809 ft 198 kts 151°
2026-05-06 11:53 53.51498 -5.57562 4553 ft 197 kts 149°
2026-05-06 11:54 53.50316 -5.56408 4304 ft 195 kts 149°
2026-05-06 11:54 53.49068 -5.55544 4009 ft 196 kts 168°
2026-05-06 11:54 53.47732 -5.55245 3819 ft 195 kts 168°
2026-05-06 11:54 53.46380 -5.54827 3605 ft 200 kts 169°
2026-05-06 11:55 53.44972 -5.54402 3404 ft 209 kts 169°
2026-05-06 11:55 53.43528 -5.53981 3194 ft 210 kts 169°
2026-05-06 11:55 53.42091 -5.53566 3068 ft 208 kts 169°
2026-05-06 11:55 53.40671 -5.53171 3027 ft 206 kts 170°
2026-05-06 11:56 53.39258 -5.53430 3025 ft 206 kts 196°
2026-05-06 11:56 53.37839 -5.53979 3045 ft 211 kts 188°
2026-05-06 11:56 53.36471 -5.54841 2958 ft 215 kts 217°
2026-05-06 11:56 53.35804 -5.56989 3024 ft 217 kts 259°
2026-05-06 11:57 53.35649 -5.59540 3036 ft 222 kts 263°
2026-05-06 11:57 53.35396 -5.62062 3010 ft 218 kts 262°
2026-05-06 11:57 53.35155 -5.64540 2994 ft 213 kts 262°
2026-05-06 11:57 53.34918 -5.66975 2996 ft 210 kts 262°
2026-05-06 11:58 53.34683 -5.69380 2993 ft 207 kts 262°
2026-05-06 11:58 53.34452 -5.71724 2988 ft 200 kts 262°
2026-05-06 11:58 53.34228 -5.73987 2983 ft 194 kts 262°
2026-05-06 11:58 53.34012 -5.76165 2993 ft 190 kts 262°
2026-05-06 11:59 53.33803 -5.78343 2990 ft 189 kts 263°
2026-05-06 11:59 53.34112 -5.80392 2953 ft 183 kts 305°
2026-05-06 11:59 53.34914 -5.82099 3052 ft 191 kts 306°
2026-05-06 11:59 53.35660 -5.83952 3012 ft 191 kts 307°
2026-05-06 12:00 53.36435 -5.85727 2996 ft 188 kts 308°
2026-05-06 12:00 53.37223 -5.87450 2992 ft 185 kts 309°
2026-05-06 12:00 53.38020 -5.89127 2995 ft 182 kts 310°
2026-05-06 12:00 53.38810 -5.90738 2988 ft 177 kts 311°
2026-05-06 12:01 53.39602 -5.92309 3004 ft 179 kts 311°
2026-05-06 12:01 53.40227 -5.94135 2986 ft 184 kts 291°
2026-05-06 12:01 53.40448 -5.96267 3029 ft 188 kts 277°
2026-05-06 12:01 53.40546 -5.98446 3002 ft 186 kts 275°
2026-05-06 12:02 53.40648 -6.00601 3000 ft 185 kts 276°
2026-05-06 12:02 53.40766 -6.02750 2898 ft 186 kts 277°
2026-05-06 12:02 53.40888 -6.04901 2651 ft 184 kts 277°
2026-05-06 12:02 53.41008 -6.07029 2367 ft 182 kts 277°
2026-05-06 12:03 53.41126 -6.09126 2093 ft 179 kts 277°
2026-05-06 12:03 53.41246 -6.11185 1841 ft 176 kts 277°
2026-05-06 12:03 53.41364 -6.13217 1611 ft 174 kts 276°
2026-05-06 12:03 53.41477 -6.15226 1391 ft 172 kts 276°
2026-05-06 12:04 53.41587 -6.17227 1192 ft 175 kts 276°
2026-05-06 12:04 53.41702 -6.19268 972 ft 177 kts 276°
2026-05-06 12:04 53.41815 -6.21316 726 ft 176 kts 276°
2026-05-06 12:04 53.41929 -6.23352 485 ft 173 kts 276°
2026-05-06 12:05 53.42040 -6.25299 295 ft 161 kts 276°
2026-05-06 12:05 53.42143 -6.26898 258 ft 95 kts 274°
2026-05-06 12:05 53.42166 -6.27516 258 ft 36 kts 274°
2026-05-06 12:05 53.42207 -6.27825 258 ft 24 kts 302°
2026-05-06 12:06 53.42254 -6.27946 258 ft 1 kts 298°
2026-05-06 12:06 53.42256 -6.27953 258 ft 0 kts 298°
2026-05-06 12:06 53.42257 -6.27954 258 ft 0 kts 298°
2026-05-06 12:06 53.42263 -6.27984 258 ft 10 kts 289°
2026-05-06 12:07 53.42288 -6.28095 258 ft 12 kts 291°
2026-05-06 12:07 53.42357 -6.28097 258 ft 13 kts 62°
2026-05-06 12:07 53.42337 -6.27972 258 ft 12 kts 65°
2026-05-06 12:07 53.42362 -6.27807 258 ft 17 kts 92°
2026-05-06 12:08 53.42344 -6.27573 258 ft 23 kts 98°
2026-05-06 12:08 53.42338 -6.27436 258 ft 13 kts 94°
2026-05-06 12:08 53.42329 -6.27256 258 ft 19 kts 97°
2026-05-06 12:08 53.42313 -6.27019 258 ft 23 kts 95°
2026-05-06 12:09 53.42295 -6.26759 258 ft 22 kts 94°
2026-05-06 12:09 53.42285 -6.26512 258 ft 20 kts 95°
2026-05-06 12:09 53.42274 -6.26291 258 ft 12 kts 94°
2026-05-06 12:09 53.42282 -6.26161 258 ft 11 kts 54°
2026-05-06 12:10 53.42330 -6.26068 258 ft 10 kts 48°
2026-05-06 12:10 53.42380 -6.25984 258 ft 10 kts 43°
2026-05-06 12:10 53.42432 -6.25909 258 ft 9 kts 26°
2026-05-06 12:10 53.42480 -6.25941 258 ft 8 kts 313°
2026-05-06 12:11 53.42503 -6.26014 258 ft 7 kts 280°
2026-05-06 12:11 53.42511 -6.26100 258 ft 9 kts 276°
2026-05-06 12:11 53.42517 -6.26198 258 ft 6 kts 275°
2026-05-06 12:11 53.42521 -6.26266 258 ft 6 kts 274°
2026-05-06 12:12 53.42496 -6.26314 258 ft 6 kts 190°
2026-05-06 12:12 53.42479 -6.26318 258 ft 4 kts 188°
2026-05-06 12:12 53.42458 -6.26323 258 ft 1 kts 186°
2026-05-06 12:12 53.42453 -6.26323 258 ft 1 kts 186°
2026-05-06 12:13 53.42442 -6.26325 258 ft 2 kts 185°
2026-05-06 12:13 53.42434 -6.26326 258 ft 1 kts 186°
2026-05-06 12:13 53.42432 -6.26327 258 ft 0 kts 185°
2026-05-06 12:13 53.42431 -6.26327 258 ft 0 kts 185°